Location: ????????
(55.3939°N, 37.4780°E)
Time: 14:28:01
(UTC+00:00)

Lacrosse 5 rocket - Pass Details

Date: 14 April 2026
Orbit: 390 x 472 km, 57.0° (Epoch: 16 May)

Event Time Altitude Azimuth Distance (km) Brightness Sun altitude
Rises 19:27:17 0° 267° (W) 2,289 4.9 -20.1°
Reaches altitude 10° 19:29:21 10° 270° (W) 1,430 3.8 -20.2°
Maximum altitude 19:32:31 66° 353° (N) 434 0.9 -20.5°
Enters shadow 19:32:36 65° 5° (N) 436 0.9 -20.5°
